Weather History for Kendall, FL

Change the Weather History Date:

Sunday, September 1, 2013

  Actual Average Record
Temperature  
Mean Temperature 82 °F -  
Max Temperature 91 °F 90 °F 95 °F (1996)
Min Temperature 73 °F 72 °F 71 °F (1991)
Cooling Degree Days 17    
Growing Degree Days 32 (Base 50)    
Moisture  
Dew Point 74 °F    
Average Humidity 82    
Maximum Humidity 100    
Minimum Humidity 55    
Precipitation  
Precipitation 0.36 in - - ()
Sea Level Pressure  
Sea Level Pressure 29.98 in    
Wind  
Wind Speed 3 mph (SSE)    
Max Wind Speed 17 mph    
Max Gust Speed 23 mph    
Visibility 9 miles    
Events Rain , Thunderstorm    
Averages and records for this station are not official NWS values.
T = Trace of Precipitation, MM = Missing Value Source: NWS Daily Summary

Daily Weather History Graph

Daily Weather History Graph

Search for Another Location

Airport:

Trip Planner

Search our weather history database for the weather conditions in past years. The results will help you decide how hot, cold, wet, or windy it might be!

Date:

Astronomy

Sep. 01, 2013 Rise Set
Actual Time 7:02 AM EDT 7:40 PM EDT
Civil Twilight 6:38 AM EDT 8:03 PM EDT
Nautical Twilight 6:11 AM EDT 8:31 PM EDT
Astronomical Twilight 5:43 AM EDT 8:59 PM EDT
Moon 3:36 AM EDT (9/1) 5:05 PM EDT (9/1)
Length of Visible Light 13h 25m
Length of Day
12h 38m
Waning Crescent, 14% of the Moon is Illuminated
Sep 1
Waning Crescent
Sep 5
New
Sep 12
First Quarter
Sep 19
Full
Sep 26
Last Quarter

Hourly Weather History & Observations

Time (EDT) Temp. Heat Index Dew Point Humidity Pressure Visibility Wind Dir Wind Speed Gust Speed Precip Events Conditions
12:53 AM 75.9 °F - 75.0 °F 97% 29.98 in 10.0 mi Calm Calm - N/A   Clear
1:53 AM 78.1 °F - 73.9 °F 87% 29.98 in 10.0 mi Calm Calm - N/A   Clear
2:53 AM 73.9 °F - 73.9 °F 100% 29.96 in 10.0 mi Calm Calm - N/A   Clear
3:53 AM 73.0 °F - 73.0 °F 100% 29.95 in 10.0 mi Calm Calm - N/A   Clear
4:53 AM 73.9 °F - 73.9 °F 100% 29.95 in 10.0 mi Calm Calm - N/A   Clear
5:53 AM 75.0 °F - 73.9 °F 96% 29.96 in 10.0 mi Calm Calm - N/A   Clear
6:53 AM 73.9 °F - 73.9 °F 100% 29.95 in 10.0 mi Calm Calm - N/A   Clear
7:53 AM 75.9 °F - 75.0 °F 97% 29.96 in 10.0 mi Calm Calm - N/A   Clear
8:53 AM 82.0 °F 90.2 °F 77.0 °F 85% 29.97 in 10.0 mi Calm Calm - N/A   Clear
9:53 AM 84.9 °F 95.3 °F 77.0 °F 77% 29.97 in 10.0 mi Variable 3.5 mph - N/A   Clear
10:53 AM 87.1 °F 97.3 °F 75.9 °F 69% 30.00 in 10.0 mi SE 5.8 mph - N/A   Scattered Clouds
11:53 AM 88.0 °F 97.5 °F 75.0 °F 65% 30.00 in 10.0 mi ESE 6.9 mph - N/A   Partly Cloudy
12:53 PM 89.1 °F 97.0 °F 73.0 °F 59% 30.00 in 10.0 mi Variable 6.9 mph - N/A   Clear
1:53 PM 91.0 °F 99.3 °F 73.0 °F 55% 29.99 in 10.0 mi ESE 12.7 mph 16.1 mph N/A   Partly Cloudy
2:08 PM 91.4 °F 100.1 °F 73.4 °F 55% 29.98 in 10.0 mi ESE 15.0 mph - N/A Thunderstorm Scattered Clouds
2:53 PM 87.1 °F 94.5 °F 73.0 °F 63% 29.98 in 10.0 mi SE 8.1 mph - N/A Thunderstorm Scattered Clouds
3:38 PM 80.6 °F 83.9 °F 69.8 °F 70% 29.99 in 10.0 mi West 9.2 mph - N/A Thunderstorm Overcast
3:53 PM 75.9 °F - 73.0 °F 91% 29.99 in 2.5 mi WSW 17.3 mph 23.0 mph 0.07 in Rain , Thunderstorm Heavy Thunderstorms and Rain
4:01 PM 75.2 °F - 73.4 °F 94% 29.99 in 1.0 mi SW 6.9 mph - 0.18 in Rain , Thunderstorm Heavy Thunderstorms and Rain
4:18 PM 75.2 °F - 73.4 °F 94% 30.00 in 3.0 mi SW 8.1 mph - 0.26 in Rain , Thunderstorm Thunderstorms and Rain
4:30 PM 78.8 °F - 73.4 °F 83% 29.98 in 5.0 mi SSE 8.1 mph - 0.28 in Rain Rain
4:53 PM 81.0 °F 85.8 °F 73.0 °F 77% 29.96 in 10.0 mi ESE 9.2 mph - 0.29 in   Mostly Cloudy
5:53 PM 84.9 °F 92.1 °F 73.9 °F 69% 29.94 in 10.0 mi Calm Calm - N/A   Clear
6:53 PM 84.9 °F 93.3 °F 75.0 °F 72% 29.96 in 10.0 mi Calm Calm - N/A   Clear
7:53 PM 82.0 °F 89.4 °F 75.9 °F 82% 29.97 in 10.0 mi Calm Calm - N/A   Partly Cloudy
8:53 PM 81.0 °F 87.3 °F 75.9 °F 85% 29.98 in 10.0 mi SE 3.5 mph - N/A   Clear
9:53 PM 81.0 °F 87.3 °F 75.9 °F 85% 30.00 in 10.0 mi Calm Calm - N/A   Clear
10:53 PM 81.0 °F 87.3 °F 75.9 °F 85% 30.01 in 10.0 mi Calm Calm - N/A   Clear
11:53 PM 80.1 °F 85.4 °F 75.9 °F 87% 30.01 in 10.0 mi Calm Calm - N/A   Clear